Lid_Strength_Index
8 11 13 11 10 10 10 11 11 9 7 9 9 9 8 7 6 6 6 6 6 6 4 3 3 2 2 2 2 2 2 1 1 1 1 1 2 1 1 1 1 1 1 0
11 13 9 8 8 10 10 12 12 9 8 9 10 10 8 7 7 6 6 6 5 5 5 4 3 2 2 2 2 2 2 2 1 1 1 1 1 1 1 1 0 0 0 0
12 10 8 9 10 11 11 12 12 12 9 9 11 12 10 8 7 6 5 5 5 5 6 5 4 3 2 2 2 2 1 1 1 1 1 1 1 2 1 1 1 0 0 -0
11 8 9 10 11 10 14 9 10 11 13 17 11 18 12 10 8 7 6 5 5 5 5 5 4 5 3 2 1 1 1 1 1 1 1 1 2 3 2 1 1 0 0 0
12 10 10 12 11 9 12 9 10 11 13 14 14 17 13 10 10 8 7 6 6 5 4 4 4 3 4 2 2 1 1 1 1 1 1 1 2 1 1 1 1 1 0 0
9 7 8 9 8 8 8 11 11 11 13 19 15 15 15 12 10 8 7 7 6 5 5 4 4 3 4 3 2 2 2 2 1 1 1 1 2 2 2 2 2 1 1 1
10 10 8 7 10 9 10 13 19 20 20 20 13 15 14 10 8 8 7 7 6 6 5 5 5 5 5 5 2 2 2 2 2 1 2 1 1 1 2 2 2 2 1 1
15 17 10 8 10 12 12 13 18 23 22 19 13 18 14 8 6 6 6 6 5 6 6 5 4 4 4 4 4 2 2 2 2 2 2 1 1 1 1 1 1 1 1 1
15 14 8 8 8 9 12 15 11 16 16 19 17 14 10 8 8 8 7 7 7 6 6 6 5 4 4 4 4 4 2 2 2 2 2 2 1 1 1 1 1 1 1 1
10 15 10 9 8 9 10 9 16 16 21 22 18 18 15 12 10 8 9 8 8 8 7 6 5 5 5 5 5 5 3 2 2 2 2 2 1 1 1 1 1 1 1 1
9 11 12 10 12 13 12 14 14 14 16 20 21 18 10 10 9 10 10 10 9 10 9 9 8 7 7 6 6 6 5 4 3 2 2 2 2 1 1 1 1 1 1 1
9 12 15 12 9 9 9 12 13 17 18 17 18 17 8 8 8 8 9 9 9 9 9 9 8 8 9 8 8 8 7 6 6 5 3 3 2 1 1 1 1 1 1 1
9 14 18 17 13 11 12 11 11 12 13 17 19 16 8 8 9 9 9 9 9 8 8 8 8 9 9 9 9 9 9 8 7 6 5 4 4 3 2 2 2 1 2 2
8 13 15 17 15 12 14 12 11 12 16 15 15 14 10 9 9 9 9 9 9 9 9 8 8 7 8 9 9 9 10 9 8 7 5 5 5 3 3 3 3 2 2 3
9 14 13 12 11 11 12 13 12 13 13 15 13 13 10 9 9 9 9 9 9 9 9 9 8 8 8 8 9 9 10 10 9 7 6 5 4 4 4 5 5 5 4 4
9 15 13 16 12 12 14 12 11 12 12 12 12 12 8 7 8 8 9 9 9 9 8 7 7 7 7 6 8 9 9 10 8 7 6 6 6 6 6 7 7 7 8 7
12 13 15 17 13 13 16 13 12 11 10 11 14 10 8 10 8 7 8 8 9 9 9 9 8 7 6 5 6 8 9 9 9 9 8 7 8 8 8 8 9 9 8 9
12 14 13 18 16 20 12 9 9 10 9 9 9 9 8 8 8 7 6 7 7 8 9 9 9 7 6 4 5 7 8 9 9 9 9 9 10 10 11 11 10 11 10 10
9 12 15 17 18 16 13 11 11 11 11 8 8 8 8 7 7 7 6 6 6 7 7 8 9 8 7 6 5 6 8 9 10 10 10 10 10 11 12 12 12 12 12 13
9 9 14 19 20 22 14 10 8 8 15 8 8 8 8 8 12 9 6 6 6 6 7 7 8 8 9 8 8 8 8 9 10 11 11 11 11 11 12 13 14 15 14 15
14 14 16 16 19 17 11 9 7 16 14 8 8 8 9 9 9 7 6 7 7 7 8 7 8 9 10 10 10 11 9 9 9 11 12 13 12 12 12 14 15 15 15 15
15 16 16 15 17 19 9 9 12 9 8 9 9 9 10 9 8 8 9 9 9 9 9 9 10 11 11 11 11 11 11 10 10 11 12 12 12 12 13 13 14 14 14 15
16 12 14 14 15 10 11 11 10 10 12 13 13 12 11 11 11 10 11 11 11 11 11 11 11 11 11 12 12 12 12 11 12 13 13 12 13 13 13 13 14 14 14 14
13 10 13 13 14 14 14 14 14 14 15 15 15 15 14 14 14 13 13 13 13 13 12 12 12 12 12 11 12 13 11 11 13 13 13 13 13 13 13 13 13 13 13 13
17 14 14 13 16 15 17 18 18 17 17 17 17 16 16 16 15 15 16 15 15 14 14 13 13 12 13 12 13 12 12 12 12 13 13 13 13 13 13 13 13 13 12 11
20 22 20 19 21 21 17 17 19 20 19 19 19 19 18 16 16 17 17 17 16 16 16 16 15 15 14 13 13 13 12 13 12 13 14 13 12 12 13 13 13 12 12 11